Elkins, WV

11:34 AM EDT on April 27, 2017 (GMT -0400)
Elkins-Randolph County

Weather History for KEKN - March, 2013

Change the Weather History Date:

Thursday, March 14, 2013

  Actual Average Record
Temperature  
Mean Temperature 30 °F 39 °F  
Max Temperature 38 °F 51 °F 82 °F (1990)
Min Temperature 22 °F 27 °F 0 °F (1960)
Degree Days  
Heating Degree Days 35 26  
Month to date heating degree days 430 390  
Since 1 July heating degree days 4677 4711  
Cooling Degree Days 0 0  
Month to date cooling degree days 0 0  
Year to date cooling degree days 0 0  
Moisture  
Dew Point 15 °F    
Average Humidity 57    
Maximum Humidity 77    
Minimum Humidity 37    
Precipitation  
Precipitation T in 0.13 in 1.76 in (1986)
Month to date precipitation 0.89 1.73  
Year to date precipitation 7.50 8.06  
Snow  
Snow 0.20 in - - ()
Month to date snowfall 8.8  
Since 1 September snowfall 67.5  
Snow Depth 1.00 in    
Sea Level Pressure  
Sea Level Pressure 30.20 in    
Wind  
Wind Speed 9 mph (West)    
Max Wind Speed 18 mph    
Max Gust Speed 30 mph    
Visibility 7 miles    
Events Snow    
T = Trace of Precipitation, MM = Missing Value Source: NWS Daily Summary

Daily Weather History Graph

Daily Weather History Graph

Search for Another Location

Airport or City:

Trip Planner

Search our weather history database for the weather conditions in past years. The results will help you decide how hot, cold, wet, or windy it might be!

Date:

Astronomy

Mar. 14, 2013 Rise Set
Actual Time 7:31 AM EDT 7:25 PM EDT
Civil Twilight 7:05 AM EDT 7:52 PM EDT
Nautical Twilight 6:34 AM EDT 8:23 PM EDT
Astronomical Twilight 6:03 AM EDT 8:54 PM EDT
Moon 8:46 AM EDT (3/14) 10:38 PM EDT (3/14)
Length of Visible Light 12h 46m
Length of Day
11h 53m
Waxing Crescent, 9% of the Moon is Illuminated
Mar 14
Waxing Crescent
Mar 19
First Quarter
Mar 27
Full
Apr 3
Last Quarter
Apr 10
New

Hourly Weather History & Observations

Time (EDT) Temp. Windchill Dew Point Humidity Pressure Visibility Wind Dir Wind Speed Gust Speed Precip Events Conditions
12:06 AM 24.8 °F 12.9 °F 17.6 °F 74% 30.12 in 3.0 mi NW 13.8 mph 19.6 mph 0.00 in Snow Light Snow
12:51 AM 24.1 °F 14.4 °F 16.0 °F 71% 30.20 in 10.0 mi West 9.2 mph - 0.00 in   Overcast
1:05 AM 24.8 °F 15.3 °F 17.6 °F 74% 30.12 in 2.0 mi West 9.2 mph 18.4 mph 0.00 in Snow Light Snow
1:08 AM 24.8 °F 14.6 °F 17.6 °F 74% 30.12 in 3.0 mi WNW 10.4 mph - 0.00 in Snow Light Snow
1:51 AM 24.1 °F 13.1 °F 16.0 °F 71% 30.21 in 4.0 mi West 11.5 mph 18.4 mph 0.00 in Snow Light Snow
2:04 AM 23.0 °F 11.1 °F 15.8 °F 74% 30.13 in 4.0 mi WNW 12.7 mph 20.7 mph 0.00 in Snow Light Snow
2:51 AM 23.0 °F 11.7 °F 16.0 °F 74% 30.22 in 3.0 mi West 11.5 mph - 0.00 in Snow Light Snow
2:57 AM 23.0 °F 13.1 °F 15.8 °F 74% 30.14 in 2.5 mi WNW 9.2 mph 18.4 mph 0.00 in Snow Light Snow
3:04 AM 23.0 °F 13.9 °F 15.8 °F 74% 30.14 in 3.0 mi NW 8.1 mph - 0.00 in Snow Light Snow
3:24 AM 23.0 °F 13.9 °F 15.8 °F 74% 30.14 in 7.0 mi WNW 8.1 mph - 0.00 in Snow Light Snow
3:51 AM 23.0 °F 14.7 °F 15.1 °F 72% 30.22 in 4.0 mi WNW 6.9 mph - 0.00 in Snow Light Snow
4:02 AM 23.0 °F 17.0 °F 15.8 °F 74% 30.13 in 3.0 mi Variable 4.6 mph - 0.00 in Snow Light Snow
4:34 AM 21.2 °F 9.5 °F 15.8 °F 80% 30.14 in 4.0 mi WNW 11.5 mph 16.1 mph 0.00 in Snow Light Snow
4:51 AM 23.0 °F 15.8 °F 12.9 °F 65% 30.23 in 9.0 mi Variable 5.8 mph 17.3 mph 0.00 in Snow Light Snow
5:40 AM 21.2 °F 11.7 °F 14.0 °F 74% 30.15 in 7.0 mi West 8.1 mph - N/A Snow Light Snow
5:51 AM 21.9 °F 11.7 °F 15.1 °F 75% 30.25 in 3.0 mi West 9.2 mph - 0.00 in Snow Light Snow
6:17 AM 21.2 °F 12.6 °F 12.2 °F 68% 30.16 in 8.0 mi WNW 6.9 mph - 0.00 in Snow Light Snow
6:35 AM 21.2 °F 13.6 °F 14.0 °F 74% 30.17 in 4.0 mi NW 5.8 mph - 0.00 in Snow Light Snow
6:51 AM 21.9 °F 13.4 °F 15.1 °F 75% 30.27 in 3.0 mi WNW 6.9 mph 16.1 mph 0.00 in Snow Light Snow
7:07 AM 21.2 °F 14.9 °F 15.8 °F 80% 30.17 in 2.5 mi SW 4.6 mph - 0.00 in Snow Light Snow
7:14 AM 21.2 °F 12.6 °F 15.8 °F 80% 30.17 in 3.0 mi WSW 6.9 mph - 0.00 in Snow Light Snow
7:51 AM 21.9 °F 13.4 °F 12.9 °F 68% 30.27 in 6.0 mi SW 6.9 mph - 0.00 in Snow Light Snow
8:01 AM 21.2 °F 10.9 °F 12.2 °F 68% 30.18 in 6.0 mi SW 9.2 mph - 0.00 in Snow Light Snow
8:51 AM 21.9 °F 14.5 °F 12.0 °F 66% 30.31 in 6.0 mi Variable 5.8 mph - 0.00 in Snow Light Snow
9:47 AM 21.2 °F 12.6 °F 12.2 °F 68% 30.22 in 6.0 mi NW 6.9 mph - 0.00 in Snow Light Snow
9:51 AM 23.0 °F 17.0 °F 12.9 °F 65% 30.32 in 7.0 mi WNW 4.6 mph - 0.00 in Snow Light Snow
10:51 AM 25.0 °F 18.1 °F 12.0 °F 58% 30.30 in 10.0 mi WSW 5.8 mph - 0.00 in   Partly Cloudy
11:51 AM 27.0 °F 16.7 °F 14.0 °F 58% 30.28 in 10.0 mi West 11.5 mph - N/A   Scattered Clouds
12:51 PM 28.9 °F 18.2 °F 16.0 °F 58% 30.28 in 10.0 mi West 13.8 mph 23.0 mph N/A   Mostly Cloudy
1:51 PM 30.9 °F 21.7 °F 16.0 °F 54% 30.25 in 10.0 mi West 11.5 mph 20.7 mph N/A   Mostly Cloudy
2:51 PM 35.1 °F 25.9 °F 18.0 °F 50% 30.21 in 10.0 mi West 13.8 mph 23.0 mph N/A   Mostly Cloudy
3:51 PM 36.0 °F 26.7 °F 18.0 °F 48% 30.19 in 10.0 mi WNW 15.0 mph 23.0 mph N/A   Mostly Cloudy
4:51 PM 37.0 °F 28.9 °F 15.1 °F 41% 30.18 in 10.0 mi West 12.7 mph 19.6 mph N/A   Partly Cloudy
5:51 PM 37.0 °F 28.1 °F 14.0 °F 39% 30.18 in 10.0 mi WNW 15.0 mph 20.7 mph N/A   Partly Cloudy
6:51 PM 36.0 °F 29.6 °F 12.9 °F 39% 30.19 in 10.0 mi NW 8.1 mph 18.4 mph N/A   Clear
7:51 PM 34.0 °F 27.2 °F 12.0 °F 40% 30.20 in 10.0 mi West 8.1 mph - N/A   Clear
8:51 PM 33.1 °F 30.0 °F 12.0 °F 42% 30.20 in 10.0 mi Variable 3.5 mph - N/A   Clear
9:51 PM 32.0 °F 28.7 °F 12.0 °F 44% 30.20 in 10.0 mi WSW 3.5 mph - N/A   Clear
10:51 PM 32.0 °F 25.6 °F 12.0 °F 44% 30.21 in 10.0 mi WNW 6.9 mph - N/A   Clear
11:51 PM 32.0 °F 28.7 °F 12.0 °F 44% 30.21 in 10.0 mi West 3.5 mph - N/A   Clear